USA 40 R/B DEB, 23381

Orbit data source: Space-Track

USA 40 R/B DEB, 23381 is space debris in LEO originally from a launch on Tue, 08 Aug 1989 UTC launched from the Air Force Eastern Test Range (AFETR). Debris objects in space refer to the collection of defunct objects orbiting the Earth. Examples of debris include non-operational satellites, rocket bodies, and fragments generated from explosions, collisions, or faulty payload assembly.

Loading next visibility...
Identifier
23381, 1989-061BD
Orbit
LEO
Country
Flag of USUS
Related business
Manufacturer
Unknown
Mission
Spacecraft
Bus & Motor
Unknown
Mass
Unknown
Launch date (UTC)
1989-08-08 (37 years ago)
Launch vehicle
Unknown
Launch site
Air Force Eastern Test Range (AFETR)
Object type
Payload
Rocket body
Debris
Shape & HBR
Unknown shape, 0.1 m
Radar Cross Section
Medium (>0.1 m² and <1 m²)

Expand to show TLE details & history
Last TLE update: 1 day ago

TLE from 1 day ago
0 USA 40 R/B DEB
1 23381U 89061BD  26169.02306153  .00035292  00000-0  13410-1 0  9996
2 23381  56.8961 114.4722 2294178  55.2543 324.3480 10.36423033260920
Epoch: 2026-06-18T00:33Z
TLE epoch observation values (Epoch: 2026-06-18T00:33:12.516Z)
Latitude
0.00005°
Longitude
-160.10227°
Altitude
1,065.629 km
Speed
7.891 km/s
True Right ascension
07h 37m 53s
True Declination
0° 00' 00"
Sunlit
Object was in daylight at epoch
Visualization orbit readout
Latitude
Unknown
Longitude
Unknown
Altitude
Unknown
Speed
Unknown
Apparent Right ascension
Unknown
Apparent Declination
Unknown
Sunlit
N/A
Visualization observer readout
Local Sidereal Time
13:27:34
Azimuth
Unknown
Elevation
Unknown
Doppler factor
Unknown
Orbital elements
Apogee altitude
4,546.234 km
Perigee altitude
469.109 km
Semi-major axis
8,885.808 km
Eccentricity
0.22942
Inclination
56.8961°
RAAN
114.4722°
Arg. of periapsis
55.2543°
True anomaly
304.83716°
Mean anomaly
324.348°
Eccentric anomaly
315.06364°
Mean motion
2.59118 °/min
Orbital period
138.93 mins
BSTAR
0.01341
Loading maneuver chart data...
Computing Atmospheric mass density...
Loading historical data...
Loading historical data...
Loading historical data...
Loading historical data...
Loading historical data...
Loading historical data...
Loading historical data...

Documentation

Showing up to 5 results
|